| time (UTC) | temp C | wind direction | speed KPH | gust KPH | rain 1hr cm | rain 24hr cm | rain mn cm | humidity % | barometer mb |
| 20260904083528 | 23 | 198 | 17.7 | 29.0 | 0.00 | 0.00 | 0.00 | 73 | 1015.7 |
| 20260904083024 | 23 | 252 | 16.1 | 29.0 | 0.00 | 0.00 | 0.00 | 73 | 1015.7 |
| 20260904082523 | 23 | 207 | 16.1 | 25.7 | 0.00 | 0.00 | 0.00 | 74 | 1015.8 |
| 20260904082023 | 23 | 191 | 16.1 | 25.7 | 0.00 | 0.00 | 0.00 | 74 | 1015.9 |
| 20260904081521 | 23 | 198 | 16.1 | 27.4 | 0.00 | 0.00 | 0.00 | 74 | 1016.0 |
| 20260904081020 | 22 | 201 | 14.5 | 25.7 | 0.00 | 0.00 | 0.00 | 75 | 1016.1 |
| 20260904080519 | 22 | 239 | 17.7 | 27.4 | 0.00 | 0.00 | 0.00 | 76 | 1016.2 |
| 20260904080019 | 22 | 221 | 12.9 | 22.5 | 0.00 | 0.00 | 0.00 | 78 | 1016.2 |
| 20260904075515 | 22 | 183 | 11.3 | 25.7 | 0.00 | 0.00 | 0.00 | 80 | 1016.3 |
| 20260904075014 | 21 | 192 | 14.5 | 25.7 | 0.00 | 0.00 | 0.00 | 80 | 1016.3 |
| 20260904074514 | 21 | 232 | 11.3 | 25.7 | 0.00 | 0.00 | 0.00 | 82 | 1016.2 |
| 20260904074011 | 20 | 209 | 11.3 | 25.7 | 0.00 | 0.00 | 0.00 | 82 | 1016.3 |
| 20260904073511 | 20 | 196 | 11.3 | 25.7 | 0.00 | 0.00 | 0.00 | 82 | 1016.3 |
| 20260904073012 | 20 | 187 | 9.7 | 20.9 | 0.00 | 0.00 | 0.00 | 82 | 1016.3 |
| 20260904072509 | 20 | 203 | 11.3 | 22.5 | 0.00 | 0.00 | 0.00 | 83 | 1016.4 |
| 20260904072009 | 20 | 234 | 12.9 | 22.5 | 0.00 | 0.00 | 0.00 | 83 | 1016.3 |
| 20260904071508 | 20 | 206 | 11.3 | 20.9 | 0.00 | 0.00 | 0.00 | 84 | 1016.4 |
| 20260904071007 | 20 | 187 | 9.7 | 19.3 | 0.00 | 0.00 | 0.00 | 84 | 1016.5 |
| 20260904070505 | 20 | 215 | 8.0 | 16.1 | 0.00 | 0.00 | 0.00 | 84 | 1016.6 |
| 20260904070014 | 20 | 194 | 6.4 | 16.1 | 0.00 | 0.00 | 0.00 | 85 | 1016.6 |
| 20260904065508 | 20 | 186 | 9.7 | 16.1 | 0.00 | 0.00 | 0.00 | 84 | 1016.7 |
| 20260904065006 | 20 | 250 | 11.3 | 16.1 | 0.00 | 0.00 | 0.00 | 85 | 1016.8 |
| 20260904064510 | 19 | 197 | 9.7 | 17.7 | 0.00 | 0.00 | 0.00 | 85 | 1016.8 |
| 20260904064003 | 19 | 242 | 11.3 | 17.7 | 0.00 | 0.00 | 0.00 | 85 | 1016.8 |
| 20260904063502 | 19 | 240 | 9.7 | 17.7 | 0.00 | 0.00 | 0.00 | 85 | 1016.9 |
| 20260904063005 | 19 | 232 | 6.4 | 19.3 | 0.00 | 0.00 | 0.00 | 85 | 1016.9 |
| 20260904062501 | 19 | 215 | 9.7 | 19.3 | 0.00 | 0.00 | 0.00 | 85 | 1016.9 |
| 20260904062001 | 19 | 248 | 9.7 | 19.3 | 0.00 | 0.00 | 0.00 | 85 | 1017.0 |
| 20260904061601 | 19 | 227 | 9.7 | 17.7 | 0.00 | 0.00 | 0.00 | 85 | 1017.0 |
| 20260904061100 | 19 | 241 | 9.7 | 17.7 | 0.00 | 0.00 | 0.00 | 86 | 1016.9 |
| 20260904060600 | 19 | 228 | 9.7 | 16.1 | 0.00 | 0.00 | 0.00 | 86 | 1016.9 |
| 20260904060100 | 19 | 242 | 9.7 | 20.9 | 0.00 | 0.00 | 0.00 | 86 | 1017.0 |
| 20260904055559 | 19 | 199 | 8.0 | 20.9 | 0.00 | 0.00 | 0.00 | 86 | 1017.0 |
| 20260904055057 | 18 | 211 | 8.0 | 14.5 | 0.00 | 0.00 | 0.00 | 87 | 1017.0 |
| 20260904054559 | 18 | 195 | 6.4 | 14.5 | 0.00 | 0.00 | 0.00 | 87 | 1017.0 |
| 20260904054057 | 18 | 201 | 6.4 | 14.5 | 0.00 | 0.00 | 0.00 | 87 | 1016.9 |
| 20260904053556 | 18 | 196 | 6.4 | 12.9 | 0.00 | 0.00 | 0.00 | 87 | 1017.0 |
| 20260904053102 | 18 | 216 | 6.4 | 12.9 | 0.00 | 0.00 | 0.00 | 87 | 1017.1 |
| 20260904052555 | 18 | 176 | 4.8 | 11.3 | 0.00 | 0.00 | 0.00 | 87 | 1017.0 |
| 20260904052055 | 18 | 177 | 3.2 | 9.7 | 0.00 | 0.00 | 0.00 | 87 | 1017.2 |
| 20260904051555 | 18 | 179 | 3.2 | 11.3 | 0.00 | 0.00 | 0.00 | 87 | 1017.1 |
| 20260904051055 | 18 | 182 | 4.8 | 11.3 | 0.00 | 0.00 | 0.00 | 87 | 1017.1 |
| 20260904050555 | 18 | 174 | 6.4 | 11.3 | 0.00 | 0.00 | 0.00 | 87 | 1017.1 |
| 20260904050055 | 18 | 182 | 4.8 | 12.9 | 0.00 | 0.00 | 0.00 | 87 | 1017.0 |
| 20260904045554 | 18 | 177 | 6.4 | 12.9 | 0.00 | 0.00 | 0.00 | 87 | 1017.0 |
| 20260904045054 | 18 | 159 | 4.8 | 12.9 | 0.00 | 0.00 | 0.00 | 87 | 1017.1 |
| 20260904044553 | 18 | 183 | 6.4 | 11.3 | 0.00 | 0.00 | 0.00 | 87 | 1017.2 |
| 20260904044056 | 18 | 180 | 4.8 | 11.3 | 0.00 | 0.00 | 0.00 | 87 | 1017.1 |
| 20260904043552 | 18 | 177 | 6.4 | 11.3 | 0.00 | 0.00 | 0.00 | 87 | 1017.2 |
| 20260904043104 | 18 | 190 | 4.8 | 14.5 | 0.00 | 0.00 | 0.00 | 87 | 1017.3 |
| 20260904042557 | 18 | 193 | 6.4 | 11.3 | 0.00 | 0.00 | 0.00 | 87 | 1017.3 |
| 20260904042052 | 18 | 197 | 4.8 | 11.3 | 0.00 | 0.00 | 0.00 | 87 | 1017.3 |
| 20260904041551 | 18 | 202 | 6.4 | 11.3 | 0.00 | 0.00 | 0.00 | 87 | 1017.3 |
| 20260904041051 | 18 | 190 | 4.8 | 11.3 | 0.00 | 0.00 | 0.00 | 86 | 1017.4 |
| 20260904040551 | 18 | 184 | 6.4 | 12.9 | 0.00 | 0.00 | 0.00 | 86 | 1017.3 |
| 20260904040050 | 18 | 170 | 4.8 | 12.9 | 0.00 | 0.00 | 0.00 | 86 | 1017.4 |
| 20260904035550 | 18 | 196 | 4.8 | 12.9 | 0.00 | 0.00 | 0.00 | 86 | 1017.5 |
| 20260904035049 | 18 | 207 | 4.8 | 12.9 | 0.00 | 0.00 | 0.00 | 86 | 1017.5 |
| 20260904034549 | 18 | 229 | 6.4 | 12.9 | 0.00 | 0.00 | 0.00 | 86 | 1017.6 |
| 20260904034049 | 18 | 228 | 6.4 | 11.3 | 0.00 | 0.00 | 0.00 | 86 | 1017.6 |
| 20260904033549 | 18 | 232 | 4.8 | 9.7 | 0.00 | 0.00 | 0.00 | 85 | 1017.6 |
| 20260904033050 | 18 | 219 | 4.8 | 9.7 | 0.00 | 0.00 | 0.00 | 85 | 1017.5 |
| 20260904032548 | 18 | 192 | 4.8 | 11.3 | 0.00 | 0.00 | 0.00 | 85 | 1017.5 |
| 20260904032047 | 18 | 213 | 6.4 | 11.3 | 0.00 | 0.00 | 0.00 | 86 | 1017.5 |
| 20260904031547 | 18 | 227 | 4.8 | 14.5 | 0.00 | 0.00 | 0.00 | 86 | 1017.7 |
| 20260904031048 | 18 | 226 | 4.8 | 14.5 | 0.00 | 0.00 | 0.00 | 86 | 1017.9 |
| 20260904030546 | 18 | 227 | 6.4 | 11.3 | 0.00 | 0.00 | 0.00 | 86 | 1017.9 |
| 20260904030046 | 18 | 225 | 6.4 | 12.9 | 0.00 | 0.00 | 0.00 | 86 | 1017.9 |
| 20260904025546 | 18 | 229 | 6.4 | 11.3 | 0.00 | 0.00 | 0.00 | 86 | 1018.0 |
| 20260904025045 | 18 | 221 | 4.8 | 11.3 | 0.00 | 0.00 | 0.00 | 86 | 1018.0 |
| 20260904024543 | 18 | 209 | 4.8 | 9.7 | 0.00 | 0.00 | 0.00 | 86 | 1018.1 |
| 20260904024044 | 18 | 229 | 6.4 | 14.5 | 0.00 | 0.00 | 0.00 | 86 | 1018.0 |
| 20260904023543 | 18 | 226 | 6.4 | 14.5 | 0.00 | 0.00 | 0.00 | 86 | 1018.2 |
| 20260904023044 | 18 | 207 | 6.4 | 14.5 | 0.00 | 0.00 | 0.00 | 86 | 1018.1 |
| 20260904022544 | 18 | 225 | 8.0 | 16.1 | 0.00 | 0.00 | 0.00 | 86 | 1018.2 |
| 20260904022044 | 18 | 234 | 6.4 | 14.5 | 0.00 | 0.00 | 0.00 | 86 | 1018.1 |
| 20260904021551 | 18 | 236 | 8.0 | 14.5 | 0.00 | 0.00 | 0.00 | 86 | 1018.2 |
| 20260904021043 | 18 | 211 | 8.0 | 12.9 | 0.00 | 0.00 | 0.00 | 86 | 1018.2 |
| 20260904020547 | 18 | 221 | 6.4 | 12.9 | 0.00 | 0.00 | 0.00 | 86 | 1018.1 |
| 20260904020043 | 18 | 213 | 6.4 | 12.9 | 0.00 | 0.00 | 0.00 | 86 | 1018.1 |
| 20260904015542 | 18 | 214 | 8.0 | 12.9 | 0.00 | 0.00 | 0.00 | 86 | 1018.1 |
| 20260904015042 | 18 | 213 | 4.8 | 11.3 | 0.00 | 0.00 | 0.00 | 85 | 1018.2 |
| 20260904014541 | 18 | 232 | 6.4 | 12.9 | 0.00 | 0.00 | 0.00 | 85 | 1018.2 |
| 20260904014041 | 18 | 230 | 6.4 | 9.7 | 0.00 | 0.00 | 0.00 | 86 | 1018.4 |
| 20260904013544 | 18 | 239 | 4.8 | 11.3 | 0.00 | 0.00 | 0.00 | 85 | 1018.3 |
| 20260904013141 | 18 | 240 | 6.4 | 11.3 | 0.00 | 0.00 | 0.00 | 85 | 1018.4 |
| 20260904012539 | 18 | 244 | 6.4 | 11.3 | 0.00 | 0.00 | 0.00 | 85 | 1018.4 |
| 20260904012039 | 18 | 223 | 4.8 | 12.9 | 0.00 | 0.00 | 0.00 | 85 | 1018.4 |
| 20260904011550 | 18 | 224 | 6.4 | 12.9 | 0.00 | 0.00 | 0.00 | 85 | 1018.5 |
| 20260904011039 | 18 | 245 | 6.4 | 12.9 | 0.00 | 0.00 | 0.00 | 85 | 1018.6 |
| 20260904010538 | 18 | 238 | 6.4 | 11.3 | 0.00 | 0.00 | 0.00 | 85 | 1018.6 |
| 20260904010038 | 18 | 215 | 6.4 | 9.7 | 0.00 | 0.00 | 0.00 | 85 | 1018.5 |
| 20260904005537 | 18 | 231 | 4.8 | 9.7 | 0.00 | 0.00 | 0.00 | 85 | 1018.4 |
| 20260904005037 | 18 | 221 | 3.2 | 9.7 | 0.00 | 0.00 | 0.00 | 85 | 1018.5 |
| 20260904004537 | 18 | 207 | 6.4 | 11.3 | 0.00 | 0.00 | 0.00 | 85 | 1018.6 |
| 20260904004036 | 18 | 232 | 4.8 | 11.3 | 0.00 | 0.00 | 0.00 | 85 | 1018.7 |
| 20260904003537 | 18 | 194 | 8.0 | 11.3 | 0.00 | 0.00 | 0.00 | 85 | 1018.7 |
| 20260904003036 | 18 | 207 | 4.8 | 8.0 | 0.00 | 0.00 | 0.00 | 85 | 1018.7 |
| 20260904002536 | 18 | 202 | 3.2 | 8.0 | 0.00 | 0.00 | 0.00 | 85 | 1018.7 |
| 20260904002036 | 18 | 201 | 3.2 | 9.7 | 0.00 | 0.00 | 0.00 | 85 | 1018.6 |
| 20260904001536 | 18 | 199 | 4.8 | 9.7 | 0.00 | 0.00 | 0.00 | 86 | 1018.6 |
| 20260904001035 | 18 | 235 | 3.2 | 8.0 | 0.00 | 0.00 | 0.00 | 86 | 1018.7 |
| 20260904000535 | 18 | 236 | 4.8 | 8.0 | 0.00 | 0.00 | 0.00 | 87 | 1018.7 |
| 20260904000037 | 18 | 237 | 3.2 | 8.0 | 0.00 | 0.00 | 0.00 | 87 | 1018.9 |
| 20260903235535 | 17 | 237 | 3.2 | 6.4 | 0.00 | 0.00 | 0.00 | 87 | 1018.9 |
| 20260903235034 | 17 | 237 | 1.6 | 4.8 | 0.00 | 0.00 | 0.00 | 87 | 1018.9 |
| 20260903234534 | 17 | 237 | 0.0 | 4.8 | 0.00 | 0.00 | 0.00 | 86 | 1018.9 |
| 20260903234033 | 17 | 237 | 3.2 | 4.8 | 0.00 | 0.00 | 0.00 | 87 | 1018.9 |
| 20260903233532 | 17 | 237 | 1.6 | 4.8 | 0.00 | 0.00 | 0.00 | 87 | 1019.0 |
| 20260903233032 | 17 | 237 | 1.6 | 4.8 | 0.00 | 0.00 | 0.00 | 86 | 1018.9 |
| 20260903232535 | 17 | 237 | 3.2 | 4.8 | 0.00 | 0.00 | 0.00 | 87 | 1019.0 |
| 20260903232032 | 17 | 237 | 1.6 | 6.4 | 0.00 | 0.00 | 0.00 | 87 | 1019.1 |
| 20260903231533 | 17 | 237 | 3.2 | 6.4 | 0.00 | 0.00 | 0.00 | 86 | 1019.0 |
| 20260903231031 | 17 | 237 | 3.2 | 6.4 | 0.00 | 0.00 | 0.00 | 86 | 1019.1 |
| 20260903230534 | 18 | 237 | 1.6 | 4.8 | 0.00 | 0.00 | 0.00 | 86 | 1019.1 |
| 20260903230037 | 18 | 237 | 1.6 | 6.4 | 0.00 | 0.00 | 0.00 | 86 | 1019.2 |
| 20260903225532 | 18 | 237 | 4.8 | 6.4 | 0.00 | 0.00 | 0.00 | 86 | 1019.2 |
| 20260903225030 | 18 | 240 | 3.2 | 6.4 | 0.00 | 0.00 | 0.00 | 85 | 1019.4 |
| 20260903224534 | 18 | 240 | 0.0 | 4.8 | 0.00 | 0.00 | 0.00 | 85 | 1019.6 |
| 20260903224028 | 18 | 240 | 3.2 | 6.4 | 0.00 | 0.00 | 0.00 | 84 | 1019.5 |
| 20260903223528 | 18 | 240 | 3.2 | 8.0 | 0.00 | 0.00 | 0.00 | 85 | 1019.5 |
| 20260903223026 | 18 | 241 | 4.8 | 8.0 | 0.00 | 0.00 | 0.00 | 86 | 1019.6 |
| 20260903222525 | 18 | 242 | 4.8 | 6.4 | 0.00 | 0.00 | 0.00 | 87 | 1019.8 |
| 20260903222024 | 18 | 242 | 3.2 | 6.4 | 0.00 | 0.00 | 0.00 | 87 | 1019.6 |
| 20260903221523 | 18 | 243 | 3.2 | 6.4 | 0.00 | 0.00 | 0.00 | 88 | 1019.6 |
| 20260903221022 | 17 | 243 | 3.2 | 6.4 | 0.00 | 0.00 | 0.00 | 88 | 1019.7 |
| 20260903220521 | 17 | 244 | 3.2 | 4.8 | 0.00 | 0.00 | 0.00 | 87 | 1019.7 |
| 20260903220034 | 17 | 244 | 1.6 | 4.8 | 0.00 | 0.00 | 0.00 | 87 | 1019.6 |
| 20260903215522 | 17 | 244 | 3.2 | 4.8 | 0.00 | 0.00 | 0.00 | 87 | 1019.7 |
| 20260903215020 | 17 | 244 | 1.6 | 4.8 | 0.00 | 0.00 | 0.00 | 86 | 1019.7 |
| 20260903214522 | 17 | 244 | 1.6 | 4.8 | 0.00 | 0.00 | 0.00 | 86 | 1019.8 |
| 20260903214019 | 18 | 244 | 1.6 | 4.8 | 0.00 | 0.00 | 0.00 | 86 | 1019.7 |
| 20260903213519 | 18 | 244 | 3.2 | 6.4 | 0.00 | 0.00 | 0.00 | 86 | 1019.8 |
| 20260903213024 | 18 | 244 | 3.2 | 6.4 | 0.00 | 0.00 | 0.00 | 86 | 1019.7 |
| 20260903212519 | 18 | 244 | 3.2 | 4.8 | 0.00 | 0.00 | 0.00 | 86 | 1019.7 |
| 20260903212019 | 18 | 244 | 3.2 | 4.8 | 0.00 | 0.00 | 0.00 | 86 | 1019.6 |
| 20260903211519 | 18 | 244 | 3.2 | 4.8 | 0.00 | 0.00 | 0.00 | 86 | 1019.7 |
| 20260903211018 | 18 | 244 | 1.6 | 4.8 | 0.00 | 0.00 | 0.00 | 86 | 1019.6 |
| 20260903210518 | 18 | 244 | 3.2 | 6.4 | 0.00 | 0.00 | 0.00 | 86 | 1019.5 |
| 20260903210025 | 18 | 244 | 3.2 | 6.4 | 0.00 | 0.00 | 0.00 | 86 | 1019.6 |
| 20260903205519 | 18 | 245 | 3.2 | 4.8 | 0.00 | 0.00 | 0.00 | 86 | 1019.6 |
| 20260903205018 | 18 | 245 | 1.6 | 4.8 | 0.00 | 0.00 | 0.00 | 86 | 1019.8 |
| 20260903204518 | 18 | 245 | 1.6 | 6.4 | 0.00 | 0.00 | 0.00 | 86 | 1019.6 |
| 20260903204018 | 18 | 245 | 3.2 | 6.4 | 0.00 | 0.00 | 0.00 | 86 | 1019.5 |
| 20260903203517 | 18 | 246 | 3.2 | 4.8 | 0.00 | 0.00 | 0.00 | 85 | 1019.5 |
| 20260903203018 | 18 | 246 | 1.6 | 4.8 | 0.00 | 0.00 | 0.00 | 86 | 1019.5 |
| 20260903202517 | 18 | 246 | 1.6 | 4.8 | 0.00 | 0.00 | 0.00 | 86 | 1019.4 |
| 20260903202019 | 18 | 246 | 3.2 | 4.8 | 0.00 | 0.00 | 0.00 | 86 | 1019.6 |
| 20260903201523 | 18 | 246 | 1.6 | 4.8 | 0.00 | 0.00 | 0.00 | 85 | 1019.5 |
| 20260903201016 | 18 | 246 | 1.6 | 4.8 | 0.00 | 0.00 | 0.00 | 85 | 1019.6 |
| 20260903200517 | 18 | 246 | 1.6 | 3.2 | 0.00 | 0.00 | 0.00 | 85 | 1019.6 |
| 20260903200017 | 18 | 246 | 1.6 | 3.2 | 0.00 | 0.00 | 0.00 | 85 | 1019.4 |
| 20260903195516 | 18 | 246 | 1.6 | 6.4 | 0.00 | 0.00 | 0.00 | 84 | 1019.5 |
| 20260903195016 | 18 | 246 | 3.2 | 6.4 | 0.00 | 0.00 | 0.00 | 85 | 1020.0 |
| 20260903194516 | 18 | 246 | 1.6 | 4.8 | 0.00 | 0.00 | 0.00 | 85 | 1019.9 |
| 20260903194018 | 18 | 246 | 1.6 | 4.8 | 0.00 | 0.00 | 0.00 | 85 | 1019.8 |
| 20260903193515 | 18 | 246 | 1.6 | 6.4 | 0.00 | 0.00 | 0.00 | 85 | 1019.8 |
| 20260903193016 | 18 | 246 | 3.2 | 6.4 | 0.00 | 0.00 | 0.00 | 85 | 1019.8 |
| 20260903192516 | 18 | 246 | 0.0 | 3.2 | 0.00 | 0.00 | 0.00 | 84 | 1019.7 |
| 20260903192015 | 19 | 246 | 1.6 | 4.8 | 0.00 | 0.00 | 0.00 | 84 | 1019.7 |
| 20260903191516 | 19 | 246 | 1.6 | 4.8 | 0.00 | 0.00 | 0.00 | 84 | 1019.8 |
| 20260903191015 | 19 | 246 | 1.6 | 6.4 | 0.00 | 0.00 | 0.00 | 84 | 1019.8 |
| 20260903190514 | 19 | 246 | 3.2 | 6.4 | 0.00 | 0.00 | 0.00 | 84 | 1019.7 |
| 20260903190015 | 19 | 246 | 1.6 | 4.8 | 0.00 | 0.00 | 0.00 | 84 | 1019.6 |
| 20260903185520 | 19 | 246 | 1.6 | 4.8 | 0.00 | 0.00 | 0.00 | 84 | 1019.6 |
| 20260903185015 | 19 | 246 | 1.6 | 6.4 | 0.00 | 0.00 | 0.00 | 84 | 1019.5 |
| 20260903184514 | 19 | 246 | 0.0 | 6.4 | 0.00 | 0.00 | 0.00 | 84 | 1019.5 |
| 20260903184016 | 19 | 247 | 0.0 | 4.8 | 0.00 | 0.00 | 0.00 | 83 | 1019.5 |
| 20260903183514 | 19 | 247 | 0.0 | 4.8 | 0.00 | 0.00 | 0.00 | 83 | 1019.7 |
| 20260903183014 | 20 | 247 | 1.6 | 4.8 | 0.00 | 0.00 | 0.00 | 82 | 1019.6 |
| 20260903182514 | 20 | 247 | 3.2 | 6.4 | 0.00 | 0.00 | 0.00 | 82 | 1019.9 |
| 20260903182014 | 20 | 247 | 3.2 | 6.4 | 0.00 | 0.00 | 0.00 | 82 | 1019.9 |
| 20260903181513 | 20 | 248 | 1.6 | 11.3 | 0.00 | 0.00 | 0.00 | 81 | 1019.8 |
| 20260903181013 | 20 | 247 | 4.8 | 11.3 | 0.00 | 0.00 | 0.00 | 81 | 1019.7 |
| 20260903180514 | 20 | 250 | 3.2 | 12.9 | 0.00 | 0.00 | 0.00 | 81 | 1019.9 |
| 20260903180018 | 20 | 245 | 1.6 | 12.9 | 0.00 | 0.00 | 0.00 | 80 | 1019.8 |
| 20260903175513 | 20 | 254 | 3.2 | 11.3 | 0.00 | 0.00 | 0.00 | 80 | 1019.6 |
| 20260903175013 | 20 | 254 | 3.2 | 8.0 | 0.00 | 0.00 | 0.00 | 81 | 1019.6 |
| 20260903174513 | 20 | 256 | 3.2 | 9.7 | 0.00 | 0.00 | 0.00 | 80 | 1019.6 |
| 20260903174015 | 20 | 254 | 3.2 | 11.3 | 0.00 | 0.00 | 0.00 | 80 | 1019.4 |
| 20260903173512 | 20 | 252 | 4.8 | 12.9 | 0.00 | 0.00 | 0.00 | 81 | 1019.6 |
| 20260903173023 | 20 | 251 | 3.2 | 19.3 | 0.00 | 0.00 | 0.00 | 81 | 1019.4 |
| 20260903172513 | 20 | 252 | 3.2 | 12.9 | 0.00 | 0.00 | 0.00 | 81 | 1019.4 |
| 20260903172012 | 21 | 256 | 3.2 | 14.5 | 0.00 | 0.00 | 0.00 | 80 | 1019.3 |
| 20260903171512 | 21 | 255 | 3.2 | 14.5 | 0.00 | 0.00 | 0.00 | 79 | 1019.5 |
| 20260903171011 | 21 | 259 | 6.4 | 14.5 | 0.00 | 0.00 | 0.00 | 77 | 1019.6 |
| 20260903170512 | 21 | 255 | 4.8 | 14.5 | 0.00 | 0.00 | 0.00 | 76 | 1019.5 |
| 20260903170013 | 21 | 262 | 4.8 | 14.5 | 0.00 | 0.00 | 0.00 | 75 | 1019.5 |
| 20260903165512 | 22 | 260 | 4.8 | 11.3 | 0.00 | 0.00 | 0.00 | 72 | 1019.4 |
| 20260903165011 | 22 | 266 | 1.6 | 11.3 | 0.00 | 0.00 | 0.00 | 71 | 1019.4 |
| 20260903164510 | 22 | 284 | 3.2 | 11.3 | 0.00 | 0.00 | 0.00 | 70 | 1019.3 |
| 20260903164010 | 22 | 290 | 3.2 | 6.4 | 0.00 | 0.00 | 0.00 | 69 | 1019.3 |
| 20260903163509 | 22 | 311 | 3.2 | 14.5 | 0.00 | 0.00 | 0.00 | 67 | 1019.3 |
| 20260903163016 | 23 | 265 | 6.4 | 14.5 | 0.00 | 0.00 | 0.00 | 67 | 1019.2 |
| 20260903162509 | 23 | 260 | 4.8 | 14.5 | 0.00 | 0.00 | 0.00 | 65 | 1019.2 |
| 20260903162011 | 23 | 262 | 3.2 | 12.9 | 0.00 | 0.00 | 0.00 | 62 | 1019.1 |
| 20260903161509 | 23 | 318 | 3.2 | 16.1 | 0.00 | 0.00 | 0.00 | 60 | 1019.0 |
| 20260903161012 | 24 | 271 | 4.8 | 22.5 | 0.00 | 0.00 | 0.00 | 60 | 1018.9 |
| 20260903160509 | 24 | 265 | 8.0 | 22.5 | 0.00 | 0.00 | 0.00 | 59 | 1018.9 |
| 20260903160015 | 24 | 263 | 4.8 | 17.7 | 0.00 | 0.00 | 0.00 | 57 | 1018.9 |
| 20260903155509 | 24 | 254 | 4.8 | 25.7 | 0.00 | 0.00 | 0.00 | 57 | 1018.8 |
| 20260903155009 | 24 | 259 | 8.0 | 25.7 | 0.00 | 0.00 | 0.00 | 56 | 1018.7 |
| 20260903154508 | 24 | 257 | 8.0 | 25.7 | 0.00 | 0.00 | 0.00 | 56 | 1018.8 |
| 20260903154008 | 24 | 251 | 12.9 | 24.1 | 0.00 | 0.00 | 0.00 | 55 | 1018.8 |
| 20260903153507 | 25 | 255 | 8.0 | 19.3 | 0.00 | 0.00 | 0.00 | 55 | 1018.8 |
| 20260903153007 | 25 | 261 | 4.8 | 22.5 | 0.00 | 0.00 | 0.00 | 55 | 1018.9 |
| 20260903152507 | 25 | 261 | 9.7 | 22.5 | 0.00 | 0.00 | 0.00 | 54 | 1018.9 |
| 20260903152010 | 25 | 263 | 11.3 | 22.5 | 0.00 | 0.00 | 0.00 | 54 | 1018.8 |
| 20260903151507 | 25 | 275 | 8.0 | 16.1 | 0.00 | 0.00 | 0.00 | 54 | 1018.9 |
| 20260903151007 | 25 | 265 | 8.0 | 29.0 | 0.00 | 0.00 | 0.00 | 54 | 1018.8 |
| 20260903150506 | 25 | 271 | 11.3 | 29.0 | 0.00 | 0.00 | 0.00 | 54 | 1018.9 |
| 20260903150009 | 24 | 256 | 17.7 | 24.1 | 0.00 | 0.00 | 0.00 | 55 | 1018.9 |
| 20260903145503 | 24 | 252 | 8.0 | 22.5 | 0.00 | 0.00 | 0.00 | 56 | 1018.8 |
| 20260903145007 | 24 | 256 | 8.0 | 20.9 | 0.00 | 0.00 | 0.00 | 56 | 1018.9 |
| 20260903144503 | 24 | 263 | 4.8 | 20.9 | 0.00 | 0.00 | 0.00 | 56 | 1019.1 |
| 20260903144003 | 24 | 254 | 11.3 | 20.9 | 0.00 | 0.00 | 0.00 | 56 | 1019.0 |
| 20260903143502 | 24 | 255 | 6.4 | 19.3 | 0.00 | 0.00 | 0.00 | 56 | 1019.0 |
| 20260903143004 | 24 | 261 | 6.4 | 22.5 | 0.00 | 0.00 | 0.00 | 55 | 1019.2 |
| 20260903142505 | 24 | 242 | 8.0 | 22.5 | 0.00 | 0.00 | 0.00 | 56 | 1019.1 |
| 20260903142001 | 24 | 267 | 6.4 | 24.1 | 0.00 | 0.00 | 0.00 | 58 | 1019.0 |
| 20260903141600 | 24 | 256 | 4.8 | 24.1 | 0.00 | 0.00 | 0.00 | 57 | 1019.0 |
| 20260903141100 | 24 | 240 | 8.0 | 20.9 | 0.00 | 0.00 | 0.00 | 57 | 1019.0 |
| 20260903140600 | 23 | 261 | 3.2 | 20.9 | 0.00 | 0.00 | 0.00 | 56 | 1019.1 |
| 20260903140059 | 23 | 249 | 8.0 | 24.1 | 0.00 | 0.00 | 0.00 | 57 | 1019.2 |
| 20260903135557 | 23 | 254 | 6.4 | 27.4 | 0.00 | 0.00 | 0.00 | 56 | 1019.2 |
| 20260903135057 | 23 | 254 | 8.0 | 27.4 | 0.00 | 0.00 | 0.00 | 57 | 1019.2 |
| 20260903134607 | 23 | 256 | 3.2 | 30.6 | 0.00 | 0.00 | 0.00 | 57 | 1019.2 |
| 20260903134054 | 23 | 275 | 14.5 | 30.6 | 0.00 | 0.00 | 0.00 | 58 | 1019.2 |
| 20260903133553 | 23 | 248 | 14.5 | 24.1 | 0.00 | 0.00 | 0.00 | 58 | 1019.2 |
| 20260903133053 | 23 | 238 | 8.0 | 25.7 | 0.00 | 0.00 | 0.00 | 58 | 1019.2 |
| 20260903132552 | 23 | 243 | 11.3 | 22.5 | 0.00 | 0.00 | 0.00 | 58 | 1019.3 |
| 20260903132051 | 23 | 257 | 3.2 | 22.5 | 0.00 | 0.00 | 0.00 | 60 | 1019.3 |
| 20260903131553 | 22 | 244 | 4.8 | 14.5 | 0.00 | 0.00 | 0.00 | 61 | 1019.4 |
| 20260903131049 | 22 | 247 | 3.2 | 14.5 | 0.00 | 0.00 | 0.00 | 62 | 1019.4 |
| 20260903130549 | 22 | 244 | 8.0 | 14.5 | 0.00 | 0.00 | 0.00 | 63 | 1019.2 |
| 20260903130052 | 22 | 246 | 3.2 | 8.0 | 0.00 | 0.00 | 0.00 | 68 | 1019.3 |
| 20260903125549 | 22 | 247 | 6.4 | 11.3 | 0.00 | 0.00 | 0.00 | 68 | 1019.5 |
| 20260903125049 | 22 | 254 | 4.8 | 22.5 | 0.00 | 0.00 | 0.00 | 67 | 1019.5 |
| 20260903124549 | 22 | 245 | 8.0 | 24.1 | 0.00 | 0.00 | 0.00 | 64 | 1019.5 |
| 20260903124048 | 22 | 231 | 9.7 | 24.1 | 0.00 | 0.00 | 0.00 | 59 | 1019.6 |
| 20260903123548 | 22 | 246 | 8.0 | 16.1 | 0.00 | 0.00 | 0.00 | 61 | 1019.4 |
| 20260903123046 | 22 | 221 | 8.0 | 12.9 | 0.00 | 0.00 | 0.00 | 62 | 1019.4 |
| 20260903122545 | 22 | 199 | 6.4 | 12.9 | 0.00 | 0.00 | 0.00 | 63 | 1019.4 |
| 20260903122046 | 22 | 197 | 4.8 | 12.9 | 0.00 | 0.00 | 0.00 | 64 | 1019.6 |
| 20260903121543 | 22 | 211 | 4.8 | 11.3 | 0.00 | 0.00 | 0.00 | 63 | 1019.7 |
| 20260903121042 | 21 | 209 | 6.4 | 14.5 | 0.00 | 0.00 | 0.00 | 62 | 1019.7 |
| 20260903120541 | 21 | 198 | 6.4 | 14.5 | 0.00 | 0.00 | 0.00 | 62 | 1019.8 |
| 20260903120042 | 21 | 202 | 6.4 | 16.1 | 0.00 | 0.00 | 0.00 | 62 | 1019.8 |
| 20260903115539 | 21 | 213 | 9.7 | 17.7 | 0.00 | 0.00 | 0.00 | 61 | 1019.9 |
| 20260903115039 | 21 | 221 | 6.4 | 16.1 | 0.00 | 0.00 | 0.00 | 62 | 1020.0 |
| 20260903114539 | 21 | 207 | 8.0 | 20.9 | 0.00 | 0.00 | 0.00 | 62 | 1020.0 |
| 20260903114040 | 21 | 201 | 8.0 | 20.9 | 0.00 | 0.00 | 0.00 | 62 | 1020.0 |
| 20260903113536 | 21 | 203 | 8.0 | 24.1 | 0.00 | 0.00 | 0.00 | 62 | 1020.0 |
| 20260903113036 | 21 | 192 | 11.3 | 19.3 | 0.00 | 0.00 | 0.00 | 62 | 1020.1 |
| 20260903112538 | 21 | 188 | 9.7 | 22.5 | 0.00 | 0.00 | 0.00 | 63 | 1020.0 |
| 20260903112034 | 20 | 193 | 9.7 | 22.5 | 0.00 | 0.00 | 0.00 | 64 | 1020.0 |
| 20260903111533 | 20 | 186 | 11.3 | 22.5 | 0.00 | 0.00 | 0.00 | 63 | 1020.1 |
| 20260903111035 | 20 | 210 | 11.3 | 22.5 | 0.00 | 0.00 | 0.00 | 63 | 1020.1 |
| 20260903110533 | 20 | 196 | 12.9 | 22.5 | 0.00 | 0.00 | 0.00 | 64 | 1019.9 |
| 20260903110033 | 20 | 208 | 11.3 | 25.7 | 0.00 | 0.00 | 0.00 | 64 | 1020.1 |
| 20260903105532 | 20 | 211 | 12.9 | 25.7 | 0.00 | 0.00 | 0.00 | 64 | 1020.2 |
| 20260903105033 | 20 | 215 | 12.9 | 24.1 | 0.00 | 0.00 | 0.00 | 65 | 1020.0 |
| 20260903104632 | 20 | 200 | 12.9 | 20.9 | 0.00 | 0.00 | 0.00 | 65 | 1020.0 |
| 20260903104030 | 20 | 210 | 9.7 | 24.1 | 0.00 | 0.00 | 0.00 | 66 | 1020.1 |
| 20260903103533 | 20 | 205 | 16.1 | 25.7 | 0.00 | 0.00 | 0.00 | 65 | 1020.3 |
| 20260903103030 | 20 | 184 | 8.0 | 22.5 | 0.00 | 0.00 | 0.00 | 67 | 1020.3 |
| 20260903102529 | 20 | 195 | 11.3 | 22.5 | 0.00 | 0.00 | 0.00 | 64 | 1020.3 |
| 20260903102029 | 20 | 197 | 9.7 | 19.3 | 0.00 | 0.00 | 0.00 | 66 | 1020.4 |
| 20260903101532 | 20 | 219 | 8.0 | 17.7 | 0.00 | 0.00 | 0.00 | 65 | 1020.6 |
| 20260903101029 | 20 | 175 | 9.7 | 20.9 | 0.00 | 0.00 | 0.00 | 64 | 1020.5 |
| 20260903100529 | 20 | 190 | 12.9 | 25.7 | 0.00 | 0.00 | 0.00 | 64 | 1020.5 |
| 20260903100028 | 20 | 185 | 12.9 | 25.7 | 0.00 | 0.00 | 0.00 | 65 | 1020.6 |
| 20260903095528 | 20 | 207 | 9.7 | 24.1 | 0.00 | 0.00 | 0.00 | 65 | 1020.6 |
| 20260903095026 | 20 | 180 | 12.9 | 29.0 | 0.00 | 0.00 | 0.00 | 65 | 1020.8 |
| 20260903094526 | 20 | 223 | 14.5 | 29.0 | 0.00 | 0.00 | 0.00 | 63 | 1021.0 |
| 20260903094026 | 20 | 197 | 14.5 | 29.0 | 0.00 | 0.00 | 0.00 | 63 | 1020.9 |
| 20260903093526 | 20 | 237 | 11.3 | 27.4 | 0.00 | 0.00 | 0.00 | 62 | 1021.0 |
| 20260903093033 | 20 | 183 | 12.9 | 22.5 | 0.00 | 0.00 | 0.00 | 63 | 1020.9 |
| 20260903092529 | 20 | 215 | 14.5 | 25.7 | 0.00 | 0.00 | 0.00 | 63 | 1020.9 |
| 20260903092025 | 20 | 237 | 17.7 | 25.7 | 0.00 | 0.00 | 0.00 | 63 | 1020.9 |
| 20260903091524 | 20 | 202 | 14.5 | 25.7 | 0.00 | 0.00 | 0.00 | 64 | 1021.0 |
| 20260903091024 | 20 | 231 | 9.7 | 16.1 | 0.00 | 0.00 | 0.00 | 66 | 1020.9 |
| 20260903090523 | 20 | 219 | 11.3 | 20.9 | 0.00 | 0.00 | 0.00 | 65 | 1020.9 |
| 20260903090022 | 20 | 192 | 9.7 | 22.5 | 0.00 | 0.00 | 0.00 | 67 | 1020.9 |
| 20260903085521 | 19 | 192 | 11.3 | 24.1 | 0.00 | 0.00 | 0.00 | 66 | 1020.9 |
| 20260903085019 | 19 | 207 | 12.9 | 24.1 | 0.00 | 0.00 | 0.00 | 67 | 1020.9 |
| 20260903084519 | 18 | 194 | 11.3 | 19.3 | 0.00 | 0.00 | 0.00 | 68 | 1021.1 |
| 20260903084017 | 18 | 233 | 11.3 | 19.3 | 0.00 | 0.00 | 0.00 | 68 | 1021.1 |